Time,TemperatureF,DewpointF,PressureIn,WindDirection,WindDirectionDegrees,WindSpeedMPH,WindSpeedGustMPH,Humidity,HourlyPrecipIn,Conditions,Clouds,dailyrainin,SoftwareType,DateUTC
2013-01-18 00:04:00,29.5,27.7,30.28,South,191,0.0,1.0,93,0.00,,,0.00,WUHU216DAVISVP2,2013-01-18 06:04:00,
2013-01-18 00:09:00,29.4,27.6,30.28,SSE,163,0.0,1.0,93,0.00,,,0.00,WUHU216DAVISVP2,2013-01-18 06:09:00,
2013-01-18 00:14:00,29.5,27.7,30.27,South,172,0.0,1.0,93,0.00,,,0.00,WUHU216DAVISVP2,2013-01-18 06:14:00,
2013-01-18 00:19:00,29.6,27.8,30.27,SSE,153,0.0,1.0,93,0.00,,,0.00,WUHU216DAVISVP2,2013-01-18 06:19:00,
2013-01-18 00:24:00,29.6,27.8,30.27,SE,138,1.0,1.0,93,0.00,,,0.00,WUHU216DAVISVP2,2013-01-18 06:24:00,
2013-01-18 00:29:00,29.6,27.8,30.27,South,169,0.0,1.0,93,0.00,,,0.00,WUHU216DAVISVP2,2013-01-18 06:29:00,
2013-01-18 00:34:00,29.6,27.5,30.26,SSE,160,1.0,1.0,92,0.00,,,0.00,WUHU216DAVISVP2,2013-01-18 06:34:00,
2013-01-18 00:39:00,29.5,27.4,30.26,SSE,158,1.0,1.0,92,0.00,,,0.00,WUHU216DAVISVP2,2013-01-18 06:39:00,
2013-01-18 00:45:00,29.5,27.4,30.26,South,169,0.0,1.0,92,0.00,,,0.00,WUHU216DAVISVP2,2013-01-18 06:45:00,
2013-01-18 00:50:00,29.4,27.4,30.26,South,186,1.0,1.0,92,0.00,,,0.00,WUHU216DAVISVP2,2013-01-18 06:50:00,
2013-01-18 00:55:00,29.4,27.4,30.26,SSE,167,0.0,1.0,92,0.00,,,0.00,WUHU216DAVISVP2,2013-01-18 06:55:00,
2013-01-18 01:00:00,29.5,27.4,30.25,SSE,158,0.0,1.0,92,0.00,,,0.00,WUHU216DAVISVP2,2013-01-18 07:00:00,
2013-01-18 01:05:00,29.4,27.3,30.25,SSE,163,0.0,1.0,92,0.00,,,0.00,WUHU216DAVISVP2,2013-01-18 07:05:00,
2013-01-18 01:10:00,29.4,27.3,30.25,SE,145,1.0,2.0,92,0.00,,,0.00,WUHU216DAVISVP2,2013-01-18 07:10:00,
2013-01-18 01:15:00,29.5,27.4,30.25,SSW,195,1.0,2.0,92,0.00,,,0.00,WUHU216DAVISVP2,2013-01-18 07:15:00,
2013-01-18 01:20:00,29.6,27.5,30.24,SE,139,0.0,2.0,92,0.00,,,0.00,WUHU216DAVISVP2,2013-01-18 07:20:00,
2013-01-18 01:25:00,29.7,27.6,30.24,SSE,163,1.0,3.0,92,0.00,,,0.00,WUHU216DAVISVP2,2013-01-18 07:25:00,
2013-01-18 01:30:00,29.7,27.3,30.24,South,169,1.0,3.0,91,0.00,,,0.00,WUHU216DAVISVP2,2013-01-18 07:30:00,
2013-01-18 01:35:00,29.7,27.4,30.24,SSE,161,1.0,3.0,91,0.00,,,0.00,WUHU216DAVISVP2,2013-01-18 07:35:00,
2013-01-18 01:40:00,29.7,27.3,30.24,South,187,0.0,3.0,91,0.00,,,0.00,WUHU216DAVISVP2,2013-01-18 07:40:00,
2013-01-18 01:45:00,29.7,27.3,30.24,South,184,1.0,2.0,91,0.00,,,0.00,WUHU216DAVISVP2,2013-01-18 07:45:00,
2013-01-18 01:50:00,29.6,27.2,30.24,SSE,148,1.0,2.0,91,0.00,,,0.00,WUHU216DAVISVP2,2013-01-18 07:50:00,
2013-01-18 01:55:00,29.6,27.2,30.24,SW,236,0.0,2.0,91,0.00,,,0.00,WUHU216DAVISVP2,2013-01-18 07:55:00,
2013-01-18 02:00:00,29.7,27.3,30.23,South,191,1.0,3.0,91,0.00,,,0.00,WUHU216DAVISVP2,2013-01-18 08:00:00,
2013-01-18 02:05:00,29.8,27.4,30.23,South,176,1.0,4.0,91,0.00,,,0.00,WUHU216DAVISVP2,2013-01-18 08:05:00,
2013-01-18 02:10:00,29.8,27.2,30.23,SSE,163,1.0,4.0,90,0.00,,,0.00,WUHU216DAVISVP2,2013-01-18 08:10:00,
2013-01-18 02:15:00,29.8,27.4,30.23,South,179,0.0,4.0,91,0.00,,,0.00,WUHU216DAVISVP2,2013-01-18 08:15:00,
2013-01-18 02:20:00,29.7,27.1,30.22,SE,135,0.0,4.0,90,0.00,,,0.00,WUHU216DAVISVP2,2013-01-18 08:20:00,
2013-01-18 02:25:00,29.7,27.3,30.22,SSE,163,4.0,5.0,91,0.00,,,0.00,WUHU216DAVISVP2,2013-01-18 08:25:00,
2013-01-18 02:30:00,29.7,27.1,30.22,SSW,205,3.0,5.0,90,0.00,,,0.00,WUHU216DAVISVP2,2013-01-18 08:30:00,
2013-01-18 02:35:00,29.7,27.1,30.22,SSE,153,0.0,5.0,90,0.00,,,0.00,WUHU216DAVISVP2,2013-01-18 08:35:00,
2013-01-18 02:40:00,29.7,27.1,30.21,South,183,1.0,5.0,90,0.00,,,0.00,WUHU216DAVISVP2,2013-01-18 08:40:00,
2013-01-18 02:45:00,29.7,27.1,30.21,SSE,148,1.0,5.0,90,0.00,,,0.00,WUHU216DAVISVP2,2013-01-18 08:45:00,
2013-01-18 02:50:00,29.8,27.2,30.21,SSE,147,2.0,7.0,90,0.00,,,0.00,WUHU216DAVISVP2,2013-01-18 08:50:00,
2013-01-18 02:55:00,29.9,27.3,30.21,SSW,207,1.0,7.0,90,0.00,,,0.00,WUHU216DAVISVP2,2013-01-18 08:55:00,
2013-01-18 03:00:00,30.1,27.5,30.21,SE,138,2.0,7.0,90,0.00,,,0.00,WUHU216DAVISVP2,2013-01-18 09:00:00,
2013-01-18 03:05:00,30.2,27.3,30.20,WSW,249,2.0,7.0,89,0.00,,,0.00,WUHU216DAVISVP2,2013-01-18 09:05:00,
2013-01-18 03:10:00,30.3,27.4,30.20,South,177,2.0,6.0,89,0.00,,,0.00,WUHU216DAVISVP2,2013-01-18 09:10:00,
2013-01-18 03:15:00,30.3,27.4,30.19,SW,217,0.0,6.0,89,0.00,,,0.00,WUHU216DAVISVP2,2013-01-18 09:15:00,
2013-01-18 03:20:00,30.2,27.0,30.19,South,191,1.0,4.0,88,0.00,,,0.00,WUHU216DAVISVP2,2013-01-18 09:20:00,
2013-01-18 03:25:00,30.2,27.0,30.19,WSW,240,1.0,6.0,88,0.00,,,0.00,WUHU216DAVISVP2,2013-01-18 09:25:00,
2013-01-18 03:30:00,30.2,27.0,30.18,SW,226,2.0,6.0,88,0.00,,,0.00,WUHU216DAVISVP2,2013-01-18 09:30:00,
2013-01-18 03:35:00,30.3,27.1,30.18,SW,229,1.0,6.0,88,0.00,,,0.00,WUHU216DAVISVP2,2013-01-18 09:35:00,
2013-01-18 03:40:00,30.3,27.1,30.18,WSW,240,1.0,6.0,88,0.00,,,0.00,WUHU216DAVISVP2,2013-01-18 09:40:00,
2013-01-18 03:45:00,30.2,27.0,30.17,South,188,2.0,5.0,88,0.00,,,0.00,WUHU216DAVISVP2,2013-01-18 09:45:00,
2013-01-18 03:50:00,30.2,27.0,30.17,SSE,158,0.0,4.0,88,0.00,,,0.00,WUHU216DAVISVP2,2013-01-18 09:50:00,
2013-01-18 03:55:00,30.2,27.0,30.17,South,181,0.0,4.0,88,0.00,,,0.00,WUHU216DAVISVP2,2013-01-18 09:55:00,
2013-01-18 04:00:00,30.2,26.8,30.16,WSW,256,0.0,3.0,87,0.00,,,0.00,WUHU216DAVISVP2,2013-01-18 10:00:00,
2013-01-18 04:05:00,30.2,26.8,30.16,SSE,166,0.0,3.0,87,0.00,,,0.00,WUHU216DAVISVP2,2013-01-18 10:05:00,
2013-01-18 04:10:00,30.2,27.0,30.15,SSE,159,1.0,3.0,88,0.00,,,0.00,WUHU216DAVISVP2,2013-01-18 10:10:00,
2013-01-18 04:15:00,30.3,26.9,30.15,SSW,210,1.0,3.0,87,0.00,,,0.00,WUHU216DAVISVP2,2013-01-18 10:15:00,
2013-01-18 04:20:00,30.8,27.4,30.15,SW,224,1.0,5.0,87,0.00,,,0.00,WUHU216DAVISVP2,2013-01-18 10:20:00,
2013-01-18 04:25:00,31.2,27.5,30.15,South,184,2.0,5.0,86,0.00,,,0.00,WUHU216DAVISVP2,2013-01-18 10:25:00,
2013-01-18 04:30:00,31.3,27.3,30.14,SSE,150,0.0,5.0,85,0.00,,,0.00,WUHU216DAVISVP2,2013-01-18 10:30:00,
2013-01-18 04:35:00,31.4,27.4,30.14,South,170,3.0,7.0,85,0.00,,,0.00,WUHU216DAVISVP2,2013-01-18 10:35:00,
2013-01-18 04:40:00,31.6,27.3,30.14,SSE,150,0.0,7.0,84,0.00,,,0.00,WUHU216DAVISVP2,2013-01-18 10:40:00,
2013-01-18 04:45:00,31.4,27.1,30.13,South,179,1.0,6.0,84,0.00,,,0.00,WUHU216DAVISVP2,2013-01-18 10:45:00,
2013-01-18 04:50:00,31.5,27.2,30.13,SE,141,0.0,6.0,84,0.00,,,0.00,WUHU216DAVISVP2,2013-01-18 10:50:00,
2013-01-18 04:55:00,31.5,27.2,30.13,SSE,159,1.0,5.0,84,0.00,,,0.00,WUHU216DAVISVP2,2013-01-18 10:55:00,
2013-01-18 05:00:00,31.8,27.5,30.13,SSW,198,0.0,5.0,84,0.00,,,0.00,WUHU216DAVISVP2,2013-01-18 11:00:00,
2013-01-18 05:05:00,32.1,27.5,30.13,SW,224,0.0,5.0,83,0.00,,,0.00,WUHU216DAVISVP2,2013-01-18 11:05:00,
2013-01-18 05:10:00,32.3,27.7,30.13,WSW,246,2.0,4.0,83,0.00,,,0.00,WUHU216DAVISVP2,2013-01-18 11:10:00,
2013-01-18 05:15:00,32.8,27.9,30.13,SW,217,0.0,5.0,82,0.00,,,0.00,WUHU216DAVISVP2,2013-01-18 11:15:00,
2013-01-18 05:20:00,33.0,27.8,30.13,WSW,245,4.0,5.0,81,0.00,,,0.00,WUHU216DAVISVP2,2013-01-18 11:20:00,
2013-01-18 05:25:00,33.2,28.0,30.12,SW,224,0.0,5.0,81,0.00,,,0.00,WUHU216DAVISVP2,2013-01-18 11:25:00,
2013-01-18 05:30:00,33.2,28.0,30.12,SSW,204,0.0,5.0,81,0.00,,,0.00,WUHU216DAVISVP2,2013-01-18 11:30:00,
2013-01-18 05:35:00,33.1,27.9,30.12,SE,143,1.0,5.0,81,0.00,,,0.00,WUHU216DAVISVP2,2013-01-18 11:35:00,
2013-01-18 05:40:00,33.1,27.6,30.12,SW,222,0.0,6.0,80,0.00,,,0.00,WUHU216DAVISVP2,2013-01-18 11:40:00,
2013-01-18 05:45:00,33.0,27.5,30.11,SW,222,1.0,6.0,80,0.00,,,0.00,WUHU216DAVISVP2,2013-01-18 11:45:00,
2013-01-18 05:50:00,32.9,27.7,30.11,SSE,159,0.0,6.0,81,0.00,,,0.00,WUHU216DAVISVP2,2013-01-18 11:50:00,
2013-01-18 05:55:00,32.9,27.7,30.11,SW,221,0.0,4.0,81,0.00,,,0.00,WUHU216DAVISVP2,2013-01-18 11:55:00,
2013-01-18 06:00:00,32.8,27.6,30.10,SSW,200,0.0,4.0,81,0.00,,,0.00,WUHU216DAVISVP2,2013-01-18 12:00:00,
2013-01-18 06:05:00,32.5,27.3,30.10,South,190,0.0,4.0,81,0.00,,,0.00,WUHU216DAVISVP2,2013-01-18 12:05:00,
2013-01-18 06:10:00,32.4,27.5,30.10,SSE,157,0.0,4.0,82,0.00,,,0.00,WUHU216DAVISVP2,2013-01-18 12:10:00,
2013-01-18 06:15:00,32.3,27.4,30.09,South,170,0.0,4.0,82,0.00,,,0.00,WUHU216DAVISVP2,2013-01-18 12:15:00,
2013-01-18 06:20:00,32.7,27.8,30.08,SW,222,3.0,7.0,82,0.00,,,0.00,WUHU216DAVISVP2,2013-01-18 12:20:00,
2013-01-18 06:25:00,32.9,27.7,30.08,SW,217,2.0,8.0,81,0.00,,,0.00,WUHU216DAVISVP2,2013-01-18 12:25:00,
2013-01-18 06:30:00,33.2,28.0,30.08,SW,214,7.0,8.0,81,0.00,,,0.00,WUHU216DAVISVP2,2013-01-18 12:30:00,
2013-01-18 06:35:00,33.6,28.4,30.08,SSW,207,2.0,8.0,81,0.00,,,0.00,WUHU216DAVISVP2,2013-01-18 12:35:00,
2013-01-18 06:40:00,33.9,28.4,30.08,SW,224,0.0,8.0,80,0.00,,,0.00,WUHU216DAVISVP2,2013-01-18 12:40:00,
2013-01-18 06:45:00,34.1,28.6,30.08,SW,217,3.0,7.0,80,0.00,,,0.00,WUHU216DAVISVP2,2013-01-18 12:45:00,
2013-01-18 06:50:00,34.2,28.7,30.07,South,170,2.0,7.0,80,0.00,,,0.00,WUHU216DAVISVP2,2013-01-18 12:50:00,
2013-01-18 06:55:00,34.2,28.7,30.06,West,259,2.0,10.0,80,0.00,,,0.00,WUHU216DAVISVP2,2013-01-18 12:55:00,
2013-01-18 07:00:00,34.1,28.6,30.05,SW,221,4.0,10.0,80,0.00,,,0.00,WUHU216DAVISVP2,2013-01-18 13:00:00,
2013-01-18 07:05:00,34.3,28.8,30.06,WNW,286,3.0,11.0,80,0.00,,,0.00,WUHU216DAVISVP2,2013-01-18 13:05:00,
2013-01-18 07:10:00,34.6,28.8,30.06,West,266,1.0,12.0,79,0.00,,,0.00,WUHU216DAVISVP2,2013-01-18 13:10:00,
2013-01-18 07:15:00,34.8,29.0,30.05,SW,222,6.0,12.0,79,0.00,,,0.00,WUHU216DAVISVP2,2013-01-18 13:15:00,
2013-01-18 07:20:00,34.9,29.1,30.05,West,262,10.0,11.0,79,0.00,,,0.00,WUHU216DAVISVP2,2013-01-18 13:20:00,
2013-01-18 07:25:00,35.0,28.9,30.05,SW,233,4.0,11.0,78,0.00,,,0.00,WUHU216DAVISVP2,2013-01-18 13:25:00,
2013-01-18 07:30:00,35.0,29.2,30.05,SSW,197,6.0,11.0,79,0.00,,,0.00,WUHU216DAVISVP2,2013-01-18 13:30:00,
2013-01-18 07:35:00,35.2,29.1,30.04,SE,132,2.0,11.0,78,0.00,,,0.00,WUHU216DAVISVP2,2013-01-18 13:35:00,
2013-01-18 07:40:00,35.4,29.2,30.05,WSW,257,5.0,11.0,78,0.00,,,0.00,WUHU216DAVISVP2,2013-01-18 13:40:00,
2013-01-18 07:45:00,35.4,29.2,30.05,WNW,302,3.0,11.0,78,0.00,,,0.00,WUHU216DAVISVP2,2013-01-18 13:45:00,
2013-01-18 07:50:00,35.5,29.3,30.05,WSW,242,4.0,10.0,78,0.00,,,0.00,WUHU216DAVISVP2,2013-01-18 13:50:00,
2013-01-18 07:55:00,35.6,29.4,30.05,SSW,204,2.0,10.0,78,0.00,,,0.00,WUHU216DAVISVP2,2013-01-18 13:55:00,
2013-01-18 08:00:00,35.7,29.5,30.05,SW,227,5.0,8.0,78,0.00,,,0.00,WUHU216DAVISVP2,2013-01-18 14:00:00,
2013-01-18 08:05:00,35.7,29.2,30.05,SW,221,0.0,6.0,77,0.00,,,0.00,WUHU216DAVISVP2,2013-01-18 14:05:00,
2013-01-18 08:10:00,35.8,29.3,30.05,SSW,203,7.0,7.0,77,0.00,,,0.00,WUHU216DAVISVP2,2013-01-18 14:10:00,
2013-01-18 08:15:00,36.1,29.6,30.05,South,186,5.0,12.0,77,0.00,,,0.00,WUHU216DAVISVP2,2013-01-18 14:15:00,
2013-01-18 08:20:00,36.3,29.8,30.05,SW,217,4.0,12.0,77,0.00,,,0.00,WUHU216DAVISVP2,2013-01-18 14:20:00,
2013-01-18 08:25:00,36.6,30.1,30.05,SSW,204,1.0,11.0,77,0.00,,,0.00,WUHU216DAVISVP2,2013-01-18 14:25:00,
2013-01-18 08:30:00,36.8,29.9,30.05,SW,224,5.0,11.0,76,0.00,,,0.00,WUHU216DAVISVP2,2013-01-18 14:30:00,
2013-01-18 08:35:00,37.2,30.3,30.05,SSW,210,7.0,12.0,76,0.00,,,0.00,WUHU216DAVISVP2,2013-01-18 14:35:00,
2013-01-18 08:40:00,37.6,30.4,30.05,SSW,212,3.0,13.0,75,0.00,,,0.00,WUHU216DAVISVP2,2013-01-18 14:40:00,
2013-01-18 08:45:00,37.9,30.7,30.05,SW,220,11.0,13.0,75,0.00,,,0.00,WUHU216DAVISVP2,2013-01-18 14:45:00,
2013-01-18 08:50:00,38.2,30.6,30.05,SW,224,9.0,12.0,74,0.00,,,0.00,WUHU216DAVISVP2,2013-01-18 14:50:00,
2013-01-18 08:55:00,38.5,30.9,30.05,SW,226,9.0,13.0,74,0.00,,,0.00,WUHU216DAVISVP2,2013-01-18 14:55:00,
2013-01-18 09:00:00,38.7,30.8,30.05,WSW,251,6.0,13.0,73,0.00,,,0.00,WUHU216DAVISVP2,2013-01-18 15:00:00,
2013-01-18 09:05:00,38.8,30.9,30.05,South,180,1.0,13.0,73,0.00,,,0.00,WUHU216DAVISVP2,2013-01-18 15:05:00,
2013-01-18 09:10:00,38.9,31.0,30.05,WSW,241,1.0,13.0,73,0.00,,,0.00,WUHU216DAVISVP2,2013-01-18 15:10:00,
2013-01-18 09:15:00,39.1,31.2,30.05,SE,145,2.0,11.0,73,0.00,,,0.00,WUHU216DAVISVP2,2013-01-18 15:15:00,
2013-01-18 09:20:00,39.3,31.4,30.05,SW,236,2.0,11.0,73,0.00,,,0.00,WUHU216DAVISVP2,2013-01-18 15:20:00,
2013-01-18 09:25:00,39.5,31.6,30.05,East,82,2.0,11.0,73,0.00,,,0.00,WUHU216DAVISVP2,2013-01-18 15:25:00,
2013-01-18 09:30:00,39.7,31.8,30.05,SSW,203,4.0,11.0,73,0.00,,,0.00,WUHU216DAVISVP2,2013-01-18 15:30:00,
2013-01-18 09:35:00,40.0,31.8,30.05,South,183,6.0,14.0,72,0.00,,,0.00,WUHU216DAVISVP2,2013-01-18 15:35:00,
2013-01-18 09:40:00,40.2,32.0,30.05,West,260,5.0,14.0,72,0.00,,,0.00,WUHU216DAVISVP2,2013-01-18 15:40:00,
2013-01-18 09:45:00,40.6,32.0,30.05,West,271,6.0,14.0,71,0.00,,,0.00,WUHU216DAVISVP2,2013-01-18 15:45:00,
2013-01-18 09:50:00,40.8,32.2,30.05,WSW,249,12.0,15.0,71,0.00,,,0.00,WUHU216DAVISVP2,2013-01-18 15:50:00,
2013-01-18 09:55:00,41.0,32.0,30.04,SW,228,8.0,18.0,70,0.00,,,0.00,WUHU216DAVISVP2,2013-01-18 15:55:00,
2013-01-18 10:00:00,41.2,31.9,30.04,SE,145,3.0,18.0,69,0.00,,,0.00,WUHU216DAVISVP2,2013-01-18 16:00:00,
2013-01-18 10:05:00,41.5,32.1,30.04,West,272,6.0,18.0,69,0.00,,,0.00,WUHU216DAVISVP2,2013-01-18 16:05:00,
2013-01-18 10:10:00,41.6,32.2,30.04,WSW,257,7.0,18.0,69,0.00,,,0.00,WUHU216DAVISVP2,2013-01-18 16:10:00,
2013-01-18 10:15:00,41.8,32.4,30.04,WNW,284,8.0,16.0,69,0.00,,,0.00,WUHU216DAVISVP2,2013-01-18 16:15:00,
2013-01-18 10:20:00,41.9,32.2,30.04,SSW,204,6.0,18.0,68,0.00,,,0.00,WUHU216DAVISVP2,2013-01-18 16:20:00,
2013-01-18 10:25:00,42.1,32.4,30.04,SW,235,7.0,18.0,68,0.00,,,0.00,WUHU216DAVISVP2,2013-01-18 16:25:00,
2013-01-18 10:30:00,42.2,32.5,30.03,South,189,3.0,17.0,68,0.00,,,0.00,WUHU216DAVISVP2,2013-01-18 16:30:00,
2013-01-18 10:35:00,42.4,32.7,30.03,SW,219,13.0,17.0,68,0.00,,,0.00,WUHU216DAVISVP2,2013-01-18 16:35:00,
2013-01-18 10:40:00,42.6,32.4,30.02,ESE,117,8.0,17.0,67,0.00,,,0.00,WUHU216DAVISVP2,2013-01-18 16:40:00,
2013-01-18 10:45:00,42.8,32.6,30.02,SW,236,5.0,17.0,67,0.00,,,0.00,WUHU216DAVISVP2,2013-01-18 16:45:00,
2013-01-18 10:50:00,43.1,32.5,30.02,SSW,194,9.0,18.0,66,0.00,,,0.00,WUHU216DAVISVP2,2013-01-18 16:50:00,
2013-01-18 10:55:00,43.4,32.9,30.02,WSW,257,6.0,18.0,66,0.00,,,0.00,WUHU216DAVISVP2,2013-01-18 16:55:00,
2013-01-18 11:00:00,43.6,32.3,30.02,SW,222,5.0,21.0,64,0.00,,,0.00,WUHU216DAVISVP2,2013-01-18 17:00:00,
2013-01-18 11:05:00,43.9,32.6,30.02,WSW,254,11.0,21.0,64,0.00,,,0.00,WUHU216DAVISVP2,2013-01-18 17:05:00,
2013-01-18 11:10:00,44.0,32.3,30.01,SW,235,7.0,21.0,63,0.00,,,0.00,WUHU216DAVISVP2,2013-01-18 17:10:00,
2013-01-18 11:15:00,44.3,33.0,30.01,WSW,257,3.0,21.0,64,0.00,,,0.00,WUHU216DAVISVP2,2013-01-18 17:15:00,
2013-01-18 11:20:00,44.6,32.8,30.01,WSW,247,11.0,18.0,63,0.00,,,0.00,WUHU216DAVISVP2,2013-01-18 17:20:00,
2013-01-18 11:25:00,44.7,33.0,30.00,SW,235,6.0,19.0,63,0.00,,,0.00,WUHU216DAVISVP2,2013-01-18 17:25:00,
2013-01-18 11:30:00,44.9,32.8,30.00,WSW,238,10.0,19.0,62,0.00,,,0.00,WUHU216DAVISVP2,2013-01-18 17:30:00,
2013-01-18 11:35:00,45.4,33.2,30.00,WSW,242,9.0,18.0,62,0.00,,,0.00,WUHU216DAVISVP2,2013-01-18 17:35:00,
2013-01-18 11:40:00,45.5,33.2,29.99,SW,226,9.0,18.0,62,0.00,,,0.00,WUHU216DAVISVP2,2013-01-18 17:40:00,
2013-01-18 11:45:00,45.7,33.0,29.99,West,274,9.0,18.0,61,0.00,,,0.00,WUHU216DAVISVP2,2013-01-18 17:45:00,
2013-01-18 11:50:00,45.9,33.2,29.98,SSE,163,5.0,18.0,61,0.00,,,0.00,WUHU216DAVISVP2,2013-01-18 17:50:00,
2013-01-18 11:55:00,46.1,33.1,29.98,WSW,255,8.0,18.0,60,0.00,,,0.00,WUHU216DAVISVP2,2013-01-18 17:55:00,
2013-01-18 12:00:00,46.4,32.9,29.98,SW,222,12.0,18.0,59,0.00,,,0.00,WUHU216DAVISVP2,2013-01-18 18:00:00,
2013-01-18 12:05:00,46.6,33.1,29.98,WSW,242,4.0,17.0,59,0.00,,,0.00,WUHU216DAVISVP2,2013-01-18 18:05:00,
2013-01-18 12:10:00,46.8,33.3,29.97,West,265,7.0,17.0,59,0.00,,,0.00,WUHU216DAVISVP2,2013-01-18 18:10:00,
2013-01-18 12:15:00,47.1,33.1,29.97,WSW,255,10.0,17.0,58,0.00,,,0.00,WUHU216DAVISVP2,2013-01-18 18:15:00,
2013-01-18 12:20:00,47.6,34.0,29.97,WNW,290,6.0,16.0,59,0.00,,,0.00,WUHU216DAVISVP2,2013-01-18 18:20:00,
2013-01-18 12:25:00,47.8,33.8,29.97,WSW,250,11.0,16.0,58,0.00,,,0.00,WUHU216DAVISVP2,2013-01-18 18:25:00,
2013-01-18 12:30:00,48.1,33.6,29.97,West,274,10.0,14.0,57,0.00,,,0.00,WUHU216DAVISVP2,2013-01-18 18:30:00,
2013-01-18 12:35:00,47.9,33.5,29.96,SW,236,10.0,16.0,57,0.00,,,0.00,WUHU216DAVISVP2,2013-01-18 18:35:00,
2013-01-18 12:40:00,48.3,33.4,29.96,SW,222,12.0,16.0,56,0.00,,,0.00,WUHU216DAVISVP2,2013-01-18 18:40:00,
2013-01-18 12:45:00,48.5,33.6,29.96,West,267,4.0,15.0,56,0.00,,,0.00,WUHU216DAVISVP2,2013-01-18 18:45:00,
2013-01-18 12:50:00,48.8,33.8,29.95,WSW,252,7.0,15.0,56,0.00,,,0.00,WUHU216DAVISVP2,2013-01-18 18:50:00,
2013-01-18 12:55:00,48.8,33.4,29.95,West,281,2.0,14.0,55,0.00,,,0.00,WUHU216DAVISVP2,2013-01-18 18:55:00,
2013-01-18 13:00:00,49.1,34.1,29.95,NNW,329,4.0,14.0,56,0.00,,,0.00,WUHU216DAVISVP2,2013-01-18 19:00:00,
2013-01-18 13:05:00,49.2,33.8,29.95,West,274,7.0,14.0,55,0.00,,,0.00,WUHU216DAVISVP2,2013-01-18 19:05:00,
2013-01-18 13:10:00,49.4,33.5,29.95,WSW,248,7.0,13.0,54,0.00,,,0.00,WUHU216DAVISVP2,2013-01-18 19:10:00,
2013-01-18 13:15:00,49.2,33.8,29.95,WSW,238,4.0,13.0,55,0.00,,,0.00,WUHU216DAVISVP2,2013-01-18 19:15:00,
2013-01-18 13:20:00,49.6,33.7,29.94,West,260,7.0,13.0,54,0.00,,,0.00,WUHU216DAVISVP2,2013-01-18 19:20:00,
2013-01-18 13:25:00,50.1,34.1,29.94,West,273,3.0,14.0,54,0.00,,,0.00,WUHU216DAVISVP2,2013-01-18 19:25:00,
2013-01-18 13:30:00,50.1,33.6,29.94,West,280,7.0,14.0,53,0.00,,,0.00,WUHU216DAVISVP2,2013-01-18 19:30:00,
2013-01-18 13:35:00,49.9,33.9,29.94,WSW,239,3.0,14.0,54,0.00,,,0.00,WUHU216DAVISVP2,2013-01-18 19:35:00,
2013-01-18 13:40:00,50.1,33.6,29.93,WSW,257,3.0,13.0,53,0.00,,,0.00,WUHU216DAVISVP2,2013-01-18 19:40:00,
2013-01-18 13:45:00,50.2,33.2,29.94,West,271,3.0,13.0,52,0.00,,,0.00,WUHU216DAVISVP2,2013-01-18 19:45:00,
2013-01-18 13:50:00,50.5,34.0,29.94,WSW,255,3.0,12.0,53,0.00,,,0.00,WUHU216DAVISVP2,2013-01-18 19:50:00,
2013-01-18 13:55:00,50.9,33.9,29.94,North,4,3.0,14.0,52,0.00,,,0.00,WUHU216DAVISVP2,2013-01-18 19:55:00,
2013-01-18 14:00:00,50.9,33.4,29.93,SW,225,9.0,14.0,51,0.00,,,0.00,WUHU216DAVISVP2,2013-01-18 20:00:00,
2013-01-18 14:05:00,50.9,33.9,29.93,SW,232,7.0,16.0,52,0.00,,,0.00,WUHU216DAVISVP2,2013-01-18 20:05:00,
2013-01-18 14:10:00,51.0,33.5,29.93,West,262,3.0,16.0,51,0.00,,,0.00,WUHU216DAVISVP2,2013-01-18 20:10:00,
2013-01-18 14:15:00,51.2,33.7,29.93,West,263,6.0,15.0,51,0.00,,,0.00,WUHU216DAVISVP2,2013-01-18 20:15:00,
2013-01-18 14:20:00,51.3,33.8,29.93,West,259,3.0,15.0,51,0.00,,,0.00,WUHU216DAVISVP2,2013-01-18 20:20:00,
2013-01-18 14:25:00,51.6,33.5,29.93,SW,235,2.0,12.0,50,0.00,,,0.00,WUHU216DAVISVP2,2013-01-18 20:25:00,
2013-01-18 14:30:00,51.7,33.6,29.93,WSW,255,4.0,12.0,50,0.00,,,0.00,WUHU216DAVISVP2,2013-01-18 20:30:00,
2013-01-18 14:35:00,51.8,33.2,29.93,West,259,6.0,13.0,49,0.00,,,0.00,WUHU216DAVISVP2,2013-01-18 20:35:00,
2013-01-18 14:40:00,51.6,33.5,29.93,WSW,246,10.0,14.0,50,0.00,,,0.00,WUHU216DAVISVP2,2013-01-18 20:40:00,
2013-01-18 14:45:00,51.7,33.6,29.93,SW,232,13.0,17.0,50,0.00,,,0.00,WUHU216DAVISVP2,2013-01-18 20:45:00,
2013-01-18 14:50:00,52.0,33.9,29.93,WSW,257,5.0,17.0,50,0.00,,,0.00,WUHU216DAVISVP2,2013-01-18 20:50:00,
2013-01-18 14:55:00,52.3,34.2,29.92,SW,229,4.0,17.0,50,0.00,,,0.00,WUHU216DAVISVP2,2013-01-18 20:55:00,
2013-01-18 15:00:00,52.1,34.0,29.92,West,263,8.0,16.0,50,0.00,,,0.00,WUHU216DAVISVP2,2013-01-18 21:00:00,
2013-01-18 15:05:00,52.0,33.9,29.92,WNW,291,4.0,16.0,50,0.00,,,0.00,WUHU216DAVISVP2,2013-01-18 21:05:00,
2013-01-18 15:10:00,52.1,34.0,29.91,SW,221,5.0,16.0,50,0.00,,,0.00,WUHU216DAVISVP2,2013-01-18 21:10:00,
2013-01-18 15:15:00,52.1,33.5,29.92,West,264,7.0,16.0,49,0.00,,,0.00,WUHU216DAVISVP2,2013-01-18 21:15:00,
2013-01-18 15:20:00,52.2,34.1,29.92,West,260,4.0,16.0,50,0.00,,,0.00,WUHU216DAVISVP2,2013-01-18 21:20:00,
2013-01-18 15:25:00,52.3,34.2,29.92,WSW,255,4.0,16.0,50,0.00,,,0.00,WUHU216DAVISVP2,2013-01-18 21:25:00,
2013-01-18 15:30:00,52.5,34.4,29.92,NW,309,3.0,16.0,50,0.00,,,0.00,WUHU216DAVISVP2,2013-01-18 21:30:00,
2013-01-18 15:35:00,52.5,34.4,29.92,WNW,300,4.0,16.0,50,0.00,,,0.00,WUHU216DAVISVP2,2013-01-18 21:35:00,
2013-01-18 15:40:00,52.6,34.5,29.91,West,264,7.0,13.0,50,0.00,,,0.00,WUHU216DAVISVP2,2013-01-18 21:40:00,
2013-01-18 15:45:00,52.6,34.0,29.91,WSW,248,10.0,17.0,49,0.00,,,0.00,WUHU216DAVISVP2,2013-01-18 21:45:00,
2013-01-18 15:50:00,52.1,34.0,29.91,West,260,9.0,17.0,50,0.00,,,0.00,WUHU216DAVISVP2,2013-01-18 21:50:00,
2013-01-18 15:55:00,52.1,34.0,29.92,WSW,257,4.0,16.0,50,0.00,,,0.00,WUHU216DAVISVP2,2013-01-18 21:55:00,
2013-01-18 16:00:00,52.3,34.2,29.92,NW,310,3.0,16.0,50,0.00,,,0.00,WUHU216DAVISVP2,2013-01-18 22:00:00,
2013-01-18 16:05:00,52.3,33.7,29.92,SW,225,6.0,11.0,49,0.00,,,0.00,WUHU216DAVISVP2,2013-01-18 22:05:00,
2013-01-18 16:10:00,52.2,33.6,29.92,West,270,3.0,8.0,49,0.00,,,0.00,WUHU216DAVISVP2,2013-01-18 22:10:00,
2013-01-18 16:15:00,52.1,34.0,29.92,WSW,240,3.0,8.0,50,0.00,,,0.00,WUHU216DAVISVP2,2013-01-18 22:15:00,
2013-01-18 16:20:00,52.0,33.9,29.92,West,274,3.0,9.0,50,0.00,,,0.00,WUHU216DAVISVP2,2013-01-18 22:20:00,
2013-01-18 16:25:00,52.0,33.9,29.92,WNW,283,2.0,9.0,50,0.00,,,0.00,WUHU216DAVISVP2,2013-01-18 22:25:00,
2013-01-18 16:30:00,51.9,33.8,29.93,West,270,3.0,8.0,50,0.00,,,0.00,WUHU216DAVISVP2,2013-01-18 22:30:00,
2013-01-18 16:35:00,51.7,34.1,29.93,SW,233,4.0,8.0,51,0.00,,,0.00,WUHU216DAVISVP2,2013-01-18 22:35:00,
2013-01-18 16:40:00,51.2,34.2,29.93,NW,308,3.0,9.0,52,0.00,,,0.00,WUHU216DAVISVP2,2013-01-18 22:40:00,
2013-01-18 16:45:00,50.8,34.3,29.93,NW,317,4.0,9.0,53,0.00,,,0.00,WUHU216DAVISVP2,2013-01-18 22:45:00,
2013-01-18 16:50:00,50.4,34.4,29.93,WNW,285,2.0,10.0,54,0.00,,,0.00,WUHU216DAVISVP2,2013-01-18 22:50:00,
2013-01-18 16:55:00,50.1,34.1,29.93,West,260,2.0,10.0,54,0.00,,,0.00,WUHU216DAVISVP2,2013-01-18 22:55:00,
2013-01-18 17:00:00,49.6,34.1,29.93,SW,232,2.0,9.0,55,0.00,,,0.00,WUHU216DAVISVP2,2013-01-18 23:00:00,
2013-01-18 17:05:00,49.0,34.0,29.94,WNW,282,3.0,9.0,56,0.00,,,0.00,WUHU216DAVISVP2,2013-01-18 23:05:00,
2013-01-18 17:10:00,48.6,34.1,29.94,West,269,0.0,8.0,57,0.00,,,0.00,WUHU216DAVISVP2,2013-01-18 23:10:00,
2013-01-18 17:15:00,48.3,34.3,29.94,West,260,0.0,8.0,58,0.00,,,0.00,WUHU216DAVISVP2,2013-01-18 23:15:00,
2013-01-18 17:20:00,47.9,34.3,29.93,WNW,292,1.0,5.0,59,0.00,,,0.00,WUHU216DAVISVP2,2013-01-18 23:20:00,
2013-01-18 17:25:00,47.5,34.0,29.93,West,259,1.0,4.0,59,0.00,,,0.00,WUHU216DAVISVP2,2013-01-18 23:25:00,
2013-01-18 17:30:00,47.1,34.0,29.93,SSW,211,0.0,4.0,60,0.00,,,0.00,WUHU216DAVISVP2,2013-01-18 23:30:00,
2013-01-18 17:35:00,46.8,34.1,29.93,SW,232,1.0,3.0,61,0.00,,,0.00,WUHU216DAVISVP2,2013-01-18 23:35:00,
2013-01-18 17:40:00,46.5,33.9,29.93,West,267,1.0,2.0,61,0.00,,,0.00,WUHU216DAVISVP2,2013-01-18 23:40:00,
2013-01-18 17:45:00,46.1,33.9,29.93,West,267,0.0,2.0,62,0.00,,,0.00,WUHU216DAVISVP2,2013-01-18 23:45:00,
2013-01-18 17:50:00,45.6,33.7,29.94,WNW,283,0.0,2.0,63,0.00,,,0.00,WUHU216DAVISVP2,2013-01-18 23:50:00,
2013-01-18 17:55:00,45.1,33.7,29.94,WSW,249,0.0,2.0,64,0.00,,,0.00,WUHU216DAVISVP2,2013-01-18 23:55:00,
2013-01-18 18:00:00,44.8,33.5,29.94,SW,231,0.0,1.0,64,0.00,,,0.00,WUHU216DAVISVP2,2013-01-19 00:00:00,
2013-01-18 18:05:00,44.4,33.5,29.94,WSW,242,1.0,1.0,65,0.00,,,0.00,WUHU216DAVISVP2,2013-01-19 00:05:00,
2013-01-18 18:10:00,44.5,33.9,29.94,West,259,2.0,4.0,66,0.00,,,0.00,WUHU216DAVISVP2,2013-01-19 00:10:00,
2013-01-18 18:15:00,44.6,33.7,29.94,WSW,250,2.0,4.0,65,0.00,,,0.00,WUHU216DAVISVP2,2013-01-19 00:15:00,
2013-01-18 18:20:00,44.7,33.7,29.94,WSW,242,2.0,4.0,65,0.00,,,0.00,WUHU216DAVISVP2,2013-01-19 00:20:00,
2013-01-18 18:25:00,44.8,33.8,29.94,SW,228,1.0,6.0,65,0.00,,,0.00,WUHU216DAVISVP2,2013-01-19 00:25:00,
2013-01-18 18:30:00,44.8,33.8,29.94,SW,224,0.0,6.0,65,0.00,,,0.00,WUHU216DAVISVP2,2013-01-19 00:30:00,
2013-01-18 18:35:00,44.5,33.6,29.94,SW,223,2.0,6.0,65,0.00,,,0.00,WUHU216DAVISVP2,2013-01-19 00:35:00,
2013-01-18 18:40:00,44.1,33.6,29.94,West,271,0.0,6.0,66,0.00,,,0.00,WUHU216DAVISVP2,2013-01-19 00:40:00,
2013-01-18 18:45:00,43.7,33.6,29.94,SSW,212,1.0,3.0,67,0.00,,,0.00,WUHU216DAVISVP2,2013-01-19 00:45:00,
2013-01-18 18:50:00,43.3,33.2,29.94,SW,232,0.0,2.0,67,0.00,,,0.00,WUHU216DAVISVP2,2013-01-19 00:50:00,
2013-01-18 18:55:00,42.9,33.2,29.94,SW,231,0.0,2.0,68,0.00,,,0.00,WUHU216DAVISVP2,2013-01-19 00:55:00,
2013-01-18 19:00:00,42.6,32.9,29.94,SW,226,1.0,3.0,68,0.00,,,0.00,WUHU216DAVISVP2,2013-01-19 01:00:00,
2013-01-18 19:05:00,42.4,33.0,29.94,WSW,239,0.0,3.0,69,0.00,,,0.00,WUHU216DAVISVP2,2013-01-19 01:05:00,
2013-01-18 19:10:00,42.2,32.8,29.95,WSW,241,2.0,3.0,69,0.00,,,0.00,WUHU216DAVISVP2,2013-01-19 01:10:00,
2013-01-18 19:15:00,42.3,32.9,29.94,West,274,2.0,4.0,69,0.00,,,0.00,WUHU216DAVISVP2,2013-01-19 01:15:00,
2013-01-18 19:20:00,42.5,33.1,29.95,West,261,1.0,4.0,69,0.00,,,0.00,WUHU216DAVISVP2,2013-01-19 01:20:00,
2013-01-18 19:25:00,42.5,33.1,29.95,WSW,249,2.0,4.0,69,0.00,,,0.00,WUHU216DAVISVP2,2013-01-19 01:25:00,
2013-01-18 19:30:00,42.3,32.9,29.95,WSW,252,1.0,4.0,69,0.00,,,0.00,WUHU216DAVISVP2,2013-01-19 01:30:00,
2013-01-18 19:35:00,42.0,32.6,29.94,WSW,239,0.0,4.0,69,0.00,,,0.00,WUHU216DAVISVP2,2013-01-19 01:35:00,
2013-01-18 19:40:00,41.8,32.7,29.94,SSW,204,1.0,4.0,70,0.00,,,0.00,WUHU216DAVISVP2,2013-01-19 01:40:00,
2013-01-18 19:45:00,41.5,32.4,29.94,West,262,0.0,3.0,70,0.00,,,0.00,WUHU216DAVISVP2,2013-01-19 01:45:00,
2013-01-18 19:50:00,41.3,32.6,29.94,WSW,252,0.0,3.0,71,0.00,,,0.00,WUHU216DAVISVP2,2013-01-19 01:50:00,
2013-01-18 19:55:00,41.0,32.3,29.94,West,274,1.0,3.0,71,0.00,,,0.00,WUHU216DAVISVP2,2013-01-19 01:55:00,
2013-01-18 20:00:00,40.8,32.2,29.94,SW,214,1.0,3.0,71,0.00,,,0.00,WUHU216DAVISVP2,2013-01-19 02:00:00,
2013-01-18 20:05:00,40.6,32.3,29.94,SW,222,0.0,4.0,72,0.00,,,0.00,WUHU216DAVISVP2,2013-01-19 02:05:00,
2013-01-18 20:10:00,40.4,32.2,29.94,SW,221,0.0,4.0,72,0.00,,,0.00,WUHU216DAVISVP2,2013-01-19 02:10:00,
2013-01-18 20:15:00,40.5,32.6,29.94,SSW,208,1.0,3.0,73,0.00,,,0.00,WUHU216DAVISVP2,2013-01-19 02:15:00,
2013-01-18 20:20:00,40.4,32.5,29.93,SSW,200,0.0,3.0,73,0.00,,,0.00,WUHU216DAVISVP2,2013-01-19 02:20:00,
2013-01-18 20:25:00,40.3,32.4,29.93,SW,235,0.0,3.0,73,0.00,,,0.00,WUHU216DAVISVP2,2013-01-19 02:25:00,
2013-01-18 20:30:00,40.2,32.3,29.93,SW,226,1.0,3.0,73,0.00,,,0.00,WUHU216DAVISVP2,2013-01-19 02:30:00,
2013-01-18 20:35:00,40.1,32.2,29.93,SW,219,1.0,3.0,73,0.00,,,0.00,WUHU216DAVISVP2,2013-01-19 02:35:00,
2013-01-18 20:40:00,40.1,32.2,29.92,WSW,251,1.0,3.0,73,0.00,,,0.00,WUHU216DAVISVP2,2013-01-19 02:40:00,
2013-01-18 20:45:00,40.0,32.1,29.92,WSW,242,2.0,3.0,73,0.00,,,0.00,WUHU216DAVISVP2,2013-01-19 02:45:00,
2013-01-18 20:50:00,39.9,32.0,29.92,SSW,211,0.0,3.0,73,0.00,,,0.00,WUHU216DAVISVP2,2013-01-19 02:50:00,
2013-01-18 20:55:00,39.6,32.1,29.92,SW,233,2.0,2.0,74,0.00,,,0.00,WUHU216DAVISVP2,2013-01-19 02:55:00,
2013-01-18 21:00:00,39.5,32.0,29.91,SW,226,0.0,3.0,74,0.00,,,0.00,WUHU216DAVISVP2,2013-01-19 03:00:00,
2013-01-18 21:05:00,39.4,31.8,29.91,SW,236,0.0,4.0,74,0.00,,,0.00,WUHU216DAVISVP2,2013-01-19 03:05:00,
2013-01-18 21:10:00,39.6,32.1,29.91,WSW,246,1.0,4.0,74,0.00,,,0.00,WUHU216DAVISVP2,2013-01-19 03:10:00,
2013-01-18 21:15:00,39.7,32.2,29.91,West,266,0.0,5.0,74,0.00,,,0.00,WUHU216DAVISVP2,2013-01-19 03:15:00,
2013-01-18 21:20:00,39.8,32.2,29.91,WSW,257,3.0,5.0,74,0.00,,,0.00,WUHU216DAVISVP2,2013-01-19 03:20:00,
2013-01-18 21:25:00,39.9,32.0,29.91,WSW,249,3.0,4.0,73,0.00,,,0.00,WUHU216DAVISVP2,2013-01-19 03:25:00,
2013-01-18 21:30:00,39.9,32.0,29.91,SW,215,2.0,6.0,73,0.00,,,0.00,WUHU216DAVISVP2,2013-01-19 03:30:00,
2013-01-18 21:35:00,39.8,31.9,29.91,South,187,1.0,6.0,73,0.00,,,0.00,WUHU216DAVISVP2,2013-01-19 03:35:00,
2013-01-18 21:40:00,39.6,31.7,29.91,SW,228,0.0,6.0,73,0.00,,,0.00,WUHU216DAVISVP2,2013-01-19 03:40:00,
2013-01-18 21:45:00,39.4,31.9,29.91,SSW,201,0.0,6.0,74,0.00,,,0.00,WUHU216DAVISVP2,2013-01-19 03:45:00,
2013-01-18 21:50:00,39.2,31.7,29.91,WSW,251,0.0,6.0,74,0.00,,,0.00,WUHU216DAVISVP2,2013-01-19 03:50:00,
2013-01-18 21:55:00,39.1,31.6,29.91,SW,234,0.0,6.0,74,0.00,,,0.00,WUHU216DAVISVP2,2013-01-19 03:55:00,
2013-01-18 22:00:00,39.0,31.5,29.90,WSW,241,0.0,5.0,74,0.00,,,0.00,WUHU216DAVISVP2,2013-01-19 04:00:00,
2013-01-18 22:05:00,38.9,31.4,29.90,WSW,243,1.0,4.0,74,0.00,,,0.00,WUHU216DAVISVP2,2013-01-19 04:05:00,
2013-01-18 22:10:00,38.8,31.3,29.90,SW,222,1.0,4.0,74,0.00,,,0.00,WUHU216DAVISVP2,2013-01-19 04:10:00,
2013-01-18 22:15:00,38.7,31.2,29.90,West,263,2.0,4.0,74,0.00,,,0.00,WUHU216DAVISVP2,2013-01-19 04:15:00,
2013-01-18 22:20:00,38.6,31.1,29.90,SW,229,0.0,4.0,74,0.00,,,0.00,WUHU216DAVISVP2,2013-01-19 04:20:00,
2013-01-18 22:25:00,38.5,31.3,29.90,SW,228,0.0,4.0,75,0.00,,,0.00,WUHU216DAVISVP2,2013-01-19 04:25:00,
2013-01-18 22:30:00,38.3,31.1,29.90,SSW,208,0.0,3.0,75,0.00,,,0.00,WUHU216DAVISVP2,2013-01-19 04:30:00,
2013-01-18 22:35:00,37.9,30.7,29.90,SSW,208,0.0,3.0,75,0.00,,,0.00,WUHU216DAVISVP2,2013-01-19 04:35:00,
2013-01-18 22:40:00,37.6,30.8,29.90,SSW,212,0.0,2.0,76,0.00,,,0.00,WUHU216DAVISVP2,2013-01-19 04:40:00,
2013-01-18 22:45:00,37.3,30.5,29.89,SW,226,0.0,1.0,76,0.00,,,0.00,WUHU216DAVISVP2,2013-01-19 04:45:00,
2013-01-18 22:50:00,37.0,30.2,29.90,SW,232,0.0,1.0,76,0.00,,,0.00,WUHU216DAVISVP2,2013-01-19 04:50:00,
2013-01-18 22:55:00,36.7,30.2,29.89,SSW,207,0.0,1.0,77,0.00,,,0.00,WUHU216DAVISVP2,2013-01-19 04:55:00,
2013-01-18 23:01:00,36.7,30.2,29.89,SW,215,0.0,1.0,77,0.00,,,0.00,WUHU216DAVISVP2,2013-01-19 05:01:00,
2013-01-18 23:03:00,36.8,30.3,29.89,SSW,205,0.0,1.0,77,0.00,,,0.00,WUHU216DAVISVP2,2013-01-19 05:03:00,
2013-01-18 23:08:00,36.8,30.3,29.89,SW,229,0.0,1.0,77,0.00,,,0.00,WUHU216DAVISVP2,2013-01-19 05:08:00,
2013-01-18 23:13:00,36.7,30.2,29.89,SSW,193,0.0,1.0,77,0.00,,,0.00,WUHU216DAVISVP2,2013-01-19 05:13:00,
2013-01-18 23:18:00,36.5,30.0,29.89,SW,226,0.0,1.0,77,0.00,,,0.00,WUHU216DAVISVP2,2013-01-19 05:18:00,
2013-01-18 23:23:00,36.4,29.9,29.89,SSE,158,0.0,1.0,77,0.00,,,0.00,WUHU216DAVISVP2,2013-01-19 05:23:00,
2013-01-18 23:28:00,36.1,29.6,29.89,SSW,211,0.0,1.0,77,0.00,,,0.00,WUHU216DAVISVP2,2013-01-19 05:28:00,
2013-01-18 23:33:00,35.8,29.6,29.88,SW,215,0.0,2.0,78,0.00,,,0.00,WUHU216DAVISVP2,2013-01-19 05:33:00,
2013-01-18 23:38:00,35.5,29.3,29.88,SW,217,0.0,2.0,78,0.00,,,0.00,WUHU216DAVISVP2,2013-01-19 05:38:00,
2013-01-18 23:43:00,35.3,29.5,29.88,SW,219,0.0,2.0,79,0.00,,,0.00,WUHU216DAVISVP2,2013-01-19 05:43:00,
2013-01-18 23:48:00,35.0,29.5,29.88,SW,219,1.0,2.0,80,0.00,,,0.00,WUHU216DAVISVP2,2013-01-19 05:48:00,
2013-01-18 23:53:00,34.9,29.4,29.88,SW,219,0.0,1.0,80,0.00,,,0.00,WUHU216DAVISVP2,2013-01-19 05:53:00,
2013-01-18 23:58:00,34.9,29.4,29.87,SSW,198,0.0,1.0,80,0.00,,,0.00,WUHU216DAVISVP2,2013-01-19 05:58:00,